User: anonymous   Login
Location: *
(45.1961°N, 1.9694°E)
Time: 13:25:12
(UTC+00:00)
Language:

SL-8 Rocket - Orbit

View from above orbital plane
View from above orbital plane
View from above satellite
View from above satellite

Ground track
Ground track

The orbit data is extracted from the following two-line orbital elements,

1 21088U 91006B   19295.07396573  .00000135  00000-0  12050-3 0  9991
2 21088  82.9387 103.2073 0023840  82.0482  57.0828 13.77126626443535
Epoch (UTC): 22 October 2019 01:46:30
Eccentricity: 0.0023840
inclination: 82.9387°
perigee height: 956 km
apogee height: 991 km
right ascension of ascending node: 103.2073°
argument of perigee: 82.0482°
revolutions per day: 13.77126626
mean anomaly at epoch: 57.0828°
orbit number at epoch: 44353

The dashed part of the orbit path shows where the satellite is in the earth's shadow,  

DLR